When you browse on this site, cookies collect data to enhance your experience and personalize the content and advertising you see.
Visit our Privacy Policy to learn more. By continuing to use the site, you agree to this use of cookies and data.
  • Em Portugal
  • Lista de países
  • Para 7 dias
  • Temperatura da água
  • Mapas de satélite
  • Mapa do tempo
  • Widgets de tempo
  • user-avatar
    Iniciar Sessão

    Previsão horária em Cork

    Hoje, 26 Março, Terça-feira

    Tempo Temperatura Precipitação Vento Pressão Humidade
    00:00 +6°C° 0 mm 1 m/s 775 mmHg 92%
    01:00 +6°C° 0 mm 1 m/s 775 mmHg 92%
    02:00 +5°C° 0 mm 1 m/s 774 mmHg 92%
    03:00 +5°C° 0 mm 1 m/s 774 mmHg 92%
    04:00 +5°C° 0 mm 1 m/s 774 mmHg 92%
    05:00 +5°C° 0 mm 1 m/s 774 mmHg 92%
    06:00 +6°C° 0 mm 1 m/s 774 mmHg 87%
    07:00 +8°C° 0 mm 1 m/s 774 mmHg 82%
    08:00 +10°C° 0 mm 1 m/s 774 mmHg 77%
    09:00 +11°C° 0 mm 1 m/s 774 mmHg 72%
    10:00 +12°C° 0 mm 2 m/s 774 mmHg 67%
    11:00 +13°C° 0 mm 2 m/s 774 mmHg 62%
    12:00 +13°C° 0 mm 2 m/s 774 mmHg 63%
    13:00 +13°C° 0 mm 3 m/s 774 mmHg 63%
    14:00 +13°C° 0 mm 3 m/s 774 mmHg 64%
    15:00 +12°C° 0 mm 3 m/s 774 mmHg 69%
    16:00 +11°C° 0 mm 3 m/s 773 mmHg 74%
    17:00 +10°C° 0 mm 3 m/s 773 mmHg 80%
    18:00 +9°C° 0 mm 3 m/s 774 mmHg 84%
    19:00 +7°C° 0 mm 2 m/s 774 mmHg 88%
    20:00 +6°C° 0 mm 2 m/s 774 mmHg 92%
    21:00 +6°C° 0 mm 2 m/s 774 mmHg 92%
    22:00 +6°C° 0 mm 1 m/s 774 mmHg 93%
    23:00 +6°C° 0 mm 1 m/s 775 mmHg 93%

    Amanhã, 27 Março, Quarta-feira

    Tempo Temperatura Precipitação Vento Pressão Humidade
    00:00 +5°C° 0 mm 1 m/s 774 mmHg 93%
    01:00 +5°C° 0 mm 1 m/s 774 mmHg 93%
    02:00 +5°C° 0 mm 1 m/s 774 mmHg 93%
    03:00 +5°C° 0 mm 1 m/s 774 mmHg 93%
    04:00 +5°C° 0 mm 1 m/s 774 mmHg 92%
    05:00 +3°C° 0 mm 0 m/s 774 mmHg 92%
    06:00 +6°C° 0 mm 1 m/s 774 mmHg 86%
    07:00 +8°C° 0 mm 1 m/s 775 mmHg 81%
    08:00 +10°C° 0 mm 1 m/s 775 mmHg 76%
    09:00 +10°C° 0 mm 2 m/s 775 mmHg 71%
    10:00 +12°C° 0 mm 2 m/s 775 mmHg 67%
    11:00 +14°C° 0 mm 2 m/s 775 mmHg 62%
    12:00 +14°C° 0 mm 2 m/s 775 mmHg 62%
    13:00 +14°C° 0 mm 3 m/s 775 mmHg 62%
    14:00 +14°C° 0 mm 3 m/s 775 mmHg 62%
    15:00 +13°C° 0 mm 3 m/s 775 mmHg 68%
    16:00 +13°C° 0 mm 2 m/s 775 mmHg 73%
    17:00 +12°C° 0 mm 2 m/s 775 mmHg 79%
    18:00 +10°C° 0 mm 2 m/s 775 mmHg 82%
    19:00 +8°C° 0 mm 2 m/s 776 mmHg 86%
    20:00 +7°C° 0 mm 2 m/s 776 mmHg 90%
    21:00 +6°C° 0 mm 2 m/s 776 mmHg 90%
    22:00 +6°C° 0 mm 2 m/s 776 mmHg 91%
    23:00 +5°C° 0 mm 2 m/s 776 mmHg 92%

    Depois de amanhã, 28 Março, Quinta-feira

    Tempo Temperatura Precipitação Vento Pressão Humidade
    00:00 +6°C° 0 mm 1 m/s 776 mmHg 92%
    01:00 +6°C° 0 mm 1 m/s 776 mmHg 92%
    02:00 +4°C° 0 mm 0 m/s 776 mmHg 92%
    03:00 +4°C° 0 mm 0 m/s 776 mmHg 91%
    04:00 +4°C° 0 mm 0 m/s 776 mmHg 91%
    05:00 +4°C° 0 mm 0 m/s 776 mmHg 91%
    06:00 +5°C° 0 mm 0 m/s 776 mmHg 86%
    07:00 +7°C° 0 mm 0 m/s 776 mmHg 81%
    08:00 +9°C° 0 mm 0 m/s 776 mmHg 75%
    09:00 +11°C° 0 mm 1 m/s 776 mmHg 70%
    10:00 +13°C° 0 mm 2 m/s 776 mmHg 65%
    11:00 +14°C° 0 mm 2 m/s 776 mmHg 60%
    12:00 +13°C° 0 mm 3 m/s 776 mmHg 61%
    13:00 +13°C° 0 mm 3 m/s 775 mmHg 62%
    14:00 +13°C° 0 mm 3 m/s 775 mmHg 63%
    15:00 +12°C° 0 mm 3 m/s 774 mmHg 68%
    16:00 +11°C° 0 mm 3 m/s 774 mmHg 73%
    17:00 +10°C° 0 mm 3 m/s 774 mmHg 77%
    18:00 +8°C° 0 mm 2 m/s 774 mmHg 82%
    19:00 +7°C° 0 mm 2 m/s 774 mmHg 86%
    20:00 +5°C° 0 mm 2 m/s 774 mmHg 90%
    21:00 +5°C° 0 mm 2 m/s 774 mmHg 91%
    22:00 +5°C° 0 mm 2 m/s 773 mmHg 91%
    23:00 +5°C° 0 mm 2 m/s 773 mmHg 92%

    29 Março, Sexta-feira

    Tempo Temperatura Precipitação Vento Pressão Humidade
    00:00 +5°C° 0 mm 2 m/s 773 mmHg 92%
    01:00 +5°C° 0 mm 2 m/s 772 mmHg 93%
    02:00 +5°C° 0 mm 2 m/s 772 mmHg 93%
    03:00 +5°C° 0 mm 2 m/s 771 mmHg 94%
    04:00 +5°C° 0 mm 2 m/s 771 mmHg 94%
    05:00 +5°C° 0 mm 2 m/s 771 mmHg 95%
    06:00 +7°C° 0 mm 3 m/s 771 mmHg 91%
    07:00 +9°C° 0 mm 3 m/s 771 mmHg 87%
    08:00 +10°C° 0 mm 3 m/s 771 mmHg 83%
    09:00 +11°C° 0 mm 3 m/s 771 mmHg 78%
    10:00 +12°C° 0 mm 3 m/s 770 mmHg 73%
    11:00 +14°C° 0 mm 3 m/s 770 mmHg 68%
    12:00 +14°C° 0 mm 4 m/s 770 mmHg 68%
    13:00 +14°C° 0 mm 4 m/s 769 mmHg 69%
    14:00 +14°C° 0 mm 4 m/s 769 mmHg 69%
    15:00 +13°C° 0 mm 3 m/s 768 mmHg 73%
    16:00 +12°C° 0 mm 3 m/s 768 mmHg 77%
    17:00 +11°C° 0 mm 3 m/s 768 mmHg 82%
    18:00 +9°C° 0 mm 2 m/s 768 mmHg 85%
    19:00 +8°C° 0 mm 2 m/s 768 mmHg 89%
    20:00 +7°C° 0 mm 1 m/s 768 mmHg 92%
    21:00 +7°C° 0 mm 1 m/s 768 mmHg 92%
    22:00 +5°C° 0 mm 0 m/s 768 mmHg 91%
    23:00 +5°C° 0 mm 0 m/s 768 mmHg 91%

    30 Março, Sábado

    Tempo Temperatura Precipitação Vento Pressão Humidade
    00:00 +5°C° 0 mm 0 m/s 767 mmHg 91%
    01:00 +5°C° 0 mm 1 m/s 767 mmHg 90%
    02:00 +5°C° 0 mm 1 m/s 767 mmHg 90%
    03:00 +5°C° 0 mm 1 m/s 767 mmHg 90%
    04:00 +4°C° 0 mm 2 m/s 767 mmHg 90%
    05:00 +4°C° 0 mm 2 m/s 766 mmHg 91%
    06:00 +5°C° 0 mm 2 m/s 767 mmHg 87%
    07:00 +7°C° 0 mm 2 m/s 767 mmHg 84%
    08:00 +9°C° 0 mm 2 m/s 767 mmHg 81%
    09:00 +10°C° 0 mm 2 m/s 767 mmHg 76%
    10:00 +12°C° 0 mm 2 m/s 767 mmHg 72%
    11:00 +14°C° 0 mm 2 m/s 767 mmHg 67%
    12:00 +14°C° 0 mm 2 m/s 767 mmHg 68%
    13:00 +14°C° 0 mm 2 m/s 767 mmHg 70%
    14:00 +14°C° 0 mm 2 m/s 767 mmHg 72%
    15:00 +11°C° 0.1 mm 3 m/s 768 mmHg 77%
    16:00 +10°C° 0.1 mm 4 m/s 768 mmHg 82%
    17:00 +8°C° 0.1 mm 5 m/s 768 mmHg 88%
    18:00 +8°C° 0.1 mm 5 m/s 769 mmHg 88%
    19:00 +7°C° 0.1 mm 5 m/s 769 mmHg 88%
    20:00 +7°C° 0.1 mm 4 m/s 770 mmHg 88%
    21:00 +6°C° 0 mm 5 m/s 770 mmHg 85%
    22:00 +5°C° 0 mm 5 m/s 771 mmHg 81%
    23:00 +3°C° 0 mm 5 m/s 771 mmHg 78%

    31 Março, Domingo

    Tempo Temperatura Precipitação Vento Pressão Humidade
    00:00 +2°C° 0 mm 5 m/s 771 mmHg 80%
    01:00 +1°C° 0 mm 5 m/s 771 mmHg 82%
    02:00 -1°C° 0 mm 4 m/s 771 mmHg 84%
    03:00 -1°C° 0 mm 4 m/s 771 mmHg 85%
    04:00 -1°C° 0 mm 4 m/s 771 mmHg 86%
    05:00 -2°C° 0 mm 4 m/s 771 mmHg 87%
    06:00 0°C° 0 mm 4 m/s 772 mmHg 82%
    07:00 +1°C° 0 mm 5 m/s 772 mmHg 78%
    08:00 +3°C° 0 mm 5 m/s 772 mmHg 73%
    09:00 +6°C° 0 mm 5 m/s 772 mmHg 71%
    10:00 +7°C° 0 mm 5 m/s 772 mmHg 68%
    11:00 +8°C° 0 mm 5 m/s 773 mmHg 66%
    12:00 +8°C° 0 mm 5 m/s 772 mmHg 65%
    13:00 +8°C° 0 mm 5 m/s 772 mmHg 64%
    14:00 +8°C° 0 mm 4 m/s 772 mmHg 63%
    15:00 +8°C° 0 mm 4 m/s 772 mmHg 66%
    16:00 +8°C° 0 mm 3 m/s 772 mmHg 69%
    17:00 +7°C° 0 mm 3 m/s 772 mmHg 72%
    18:00 +6°C° 0 mm 2 m/s 772 mmHg 77%
    19:00 +4°C° 0 mm 2 m/s 773 mmHg 82%
    20:00 +3°C° 0 mm 2 m/s 773 mmHg 86%
    21:00 +2°C° 0 mm 2 m/s 773 mmHg 87%
    22:00 +3°C° 0 mm 1 m/s 773 mmHg 88%
    23:00 +3°C° 0 mm 1 m/s 772 mmHg 88%
    Mostrar mais